Weather History for Champaign, IL

Change the Weather History Date:

Monday, June 10, 2013

  Actual Average Record
Temperature  
Mean Temperature 71 °F 71 °F  
Max Temperature 80 °F 83 °F 93 °F (1999)
Min Temperature 61 °F 59 °F 52 °F (1997)
Degree Days  
Heating Degree Days 0 1  
Month to date heating degree days 13 12  
Since 1 June heating degree days 13 12  
Since 1 July heating degree days 5651 5818  
Cooling Degree Days 6 7  
Month to date cooling degree days 31 58  
Year to date cooling degree days 163 150  
Since 1 June cooling degree days 31 58  
Growing Degree Days 20 (Base 50)    
Moisture  
Dew Point 60 °F    
Average Humidity 70    
Maximum Humidity 97    
Minimum Humidity 42    
Precipitation  
Precipitation 0.00 in 0.15 in 1.83 in (2004)
Month to date precipitation 0.47 1.63  
Year to date precipitation 16.15 16.79  
Sea Level Pressure  
Sea Level Pressure 29.81 in    
Wind  
Wind Speed 8 mph (WSW)    
Max Wind Speed 16 mph    
Max Gust Speed 21 mph    
Visibility 7 miles    
Events Fog    
T = Trace of Precipitation, MM = Missing Value Source: NWS Daily Summary

Daily Weather History Graph

Daily Weather History Graph

Search for Another Location

Airport:

Trip Planner

Search our weather history database for the weather conditions in past years. The results will help you decide how hot, cold, wet, or windy it might be!

Date:

Astronomy

Jun. 10, 2013 Rise Set
Actual Time 5:23 AM CDT 8:21 PM CDT
Civil Twilight 4:51 AM CDT 8:54 PM CDT
Nautical Twilight 4:09 AM CDT 9:35 PM CDT
Astronomical Twilight 3:21 AM CDT 10:24 PM CDT
Moon 7:12 AM CDT (6/10) 9:48 PM CDT (6/10)
Length of Visible Light 16h 03m
Length of Day
14h 57m
Waxing Crescent, 4% of the Moon is Illuminated
Jun 10
Waxing Crescent
Jun 16
First Quarter
Jun 23
Full
Jun 29
Last Quarter
Jul 8
New

Hourly Weather History & Observations

Time (CDT) Temp. Heat Index Dew Point Humidity Pressure Visibility Wind Dir Wind Speed Gust Speed Precip Events Conditions
12:12 AM 68.0 °F - 64.4 °F 88% 29.82 in 6.0 mi South 9.2 mph - N/A   Overcast
12:34 AM 66.2 °F - 64.4 °F 94% 29.82 in 6.0 mi South 8.1 mph - N/A   Scattered Clouds
12:43 AM 66.2 °F - 64.4 °F 94% 29.82 in 6.0 mi SSW 5.8 mph - N/A   Mostly Cloudy
12:53 AM 66.9 °F - 64.0 °F 90% 29.79 in 5.0 mi South 5.8 mph - N/A   Mostly Cloudy
1:07 AM 66.2 °F - 62.6 °F 88% 29.81 in 5.0 mi South 5.8 mph - N/A   Scattered Clouds
1:53 AM 63.0 °F - 61.0 °F 93% 29.77 in 3.0 mi South 4.6 mph - N/A   Clear
2:02 AM 62.6 °F - 60.8 °F 94% 29.79 in 2.0 mi South 5.8 mph - N/A   Clear
2:53 AM 63.0 °F - 61.0 °F 93% 29.76 in 2.5 mi SSE 4.6 mph - N/A   Partly Cloudy
3:33 AM 62.6 °F - 60.8 °F 94% 29.77 in 1.2 mi SW 5.8 mph - N/A   Clear
3:45 AM 62.6 °F - 60.8 °F 94% 29.77 in 1.0 mi SW 8.1 mph - N/A   Mist
3:53 AM 62.1 °F - 60.1 °F 93% 29.76 in 0.5 mi SW 6.9 mph - N/A Fog Fog
3:58 AM 62.6 °F - 60.8 °F 94% 29.77 in 1.5 mi SW 6.9 mph - N/A   Scattered Clouds
4:01 AM 62.6 °F - 60.8 °F 94% 29.77 in 3.0 mi SW 5.8 mph - N/A   Scattered Clouds
4:53 AM 62.1 °F - 59.0 °F 90% 29.77 in 6.0 mi SW 6.9 mph - N/A   Clear
5:53 AM 61.0 °F - 59.0 °F 93% 29.78 in 4.0 mi West 3.5 mph - N/A   Partly Cloudy
6:53 AM 64.0 °F - 61.0 °F 90% 29.79 in 7.0 mi SW 4.6 mph - N/A   Mostly Cloudy
7:29 AM 64.4 °F - 60.8 °F 88% 29.81 in 7.0 mi SW 5.8 mph - N/A   Mostly Cloudy
7:53 AM 64.9 °F - 61.0 °F 87% 29.80 in 8.0 mi SW 5.8 mph - N/A   Overcast
8:53 AM 66.0 °F - 61.0 °F 84% 29.81 in 9.0 mi SW 6.9 mph - N/A   Overcast
9:18 AM 66.2 °F - 60.8 °F 83% 29.82 in 10.0 mi WSW 6.9 mph - N/A   Overcast
9:26 AM 66.2 °F - 60.8 °F 83% 29.82 in 10.0 mi WSW 8.1 mph - N/A   Overcast
9:31 AM 68.0 °F - 60.8 °F 78% 29.82 in 10.0 mi WSW 6.9 mph - N/A   Overcast
9:53 AM 69.1 °F - 60.1 °F 73% 29.81 in 10.0 mi WSW 9.2 mph - N/A   Overcast
10:53 AM 72.0 °F - 60.1 °F 66% 29.81 in 10.0 mi WSW 10.4 mph - N/A   Overcast
11:53 AM 75.9 °F - 60.1 °F 58% 29.80 in 10.0 mi WSW 12.7 mph 20.7 mph N/A   Mostly Cloudy
12:53 PM 75.0 °F - 57.9 °F 55% 29.81 in 10.0 mi WNW 9.2 mph - N/A   Overcast
1:53 PM 75.9 °F - 59.0 °F 56% 29.81 in 10.0 mi NW 11.5 mph - N/A   Overcast
2:53 PM 77.0 °F - 57.9 °F 52% 29.81 in 10.0 mi WNW 11.5 mph - N/A   Overcast
3:53 PM 78.1 °F - 57.9 °F 50% 29.82 in 10.0 mi West 11.5 mph - N/A   Mostly Cloudy
4:53 PM 80.1 °F 80.4 °F 57.0 °F 45% 29.82 in 10.0 mi West 10.4 mph - N/A   Clear
5:53 PM 80.1 °F 80.2 °F 55.9 °F 43% 29.81 in 10.0 mi West 8.1 mph - N/A   Partly Cloudy
6:53 PM 79.0 °F - 57.0 °F 47% 29.82 in 10.0 mi WNW 13.8 mph - N/A   Scattered Clouds
7:53 PM 75.9 °F - 57.0 °F 52% 29.84 in 10.0 mi West 11.5 mph - N/A   Clear
8:53 PM 71.1 °F - 57.0 °F 61% 29.86 in 10.0 mi West 4.6 mph - N/A   Clear
9:53 PM 68.0 °F - 57.0 °F 68% 29.88 in 10.0 mi West 3.5 mph - N/A   Clear
10:53 PM 64.9 °F - 55.9 °F 73% 29.89 in 10.0 mi WSW 8.1 mph - N/A   Clear
11:53 PM 64.9 °F - 57.0 °F 75% 29.90 in 10.0 mi West 4.6 mph - N/A   Clear